Погода в Гьогуре

Исландия     65˚59′39″N   21˚19′52″W
темп.,
°C
ветер,
м/с
пор.,
м/с
влажн.,
%
обл.,
%
осадки,
мм/ч
давл.,
гПа
погр.,
м
15 января, пт
пт1500:00+3˚ю7107737 0.0 1012442
03:00+3˚ю710790 0.0 1013398
06:00+3˚ю8117818 0.0 1013404
09:00+3˚ю5775100 0.0 1014309
12:00+3˚юв2274100 0.0 1013130
15:00+3˚в3473100 0.0 1011152
18:00+3˚ссв4576100 0.0 1008150
21:00+3˚с5678100 0.0 1006344
16 января, сб
сб1600:00+1˚сз4494100 2.1 1002197
03:00+1˚с4598100 4.3 999216
06:00+3˚с3494100 6.9 998224
09:00+3˚ссв3592100 1.1 997266
12:00+3˚ссз3390100 1.2 997132
15:00+3˚ссв4694100 0.4 997312
18:00+3˚всв7896100 0.7 997411
21:00+3˚св6895100 0.5 997450
17 января, вс
вс1700:00+3˚с4498100 0.9 996211
03:00+3˚сз3398100 0.8 996149
06:00+3˚зсз3397100 1.9 995125
09:00+3˚всв4498100 1.9 995273
12:00+2˚ссз2397100 3.1 996222
15:00+3˚св91198100 2.7 997574
18:00+2˚св111398100 4.2 998641
21:00+2˚св121498100 1.4 1000728
18 января, пн
пн1800:00+2˚св121497100 2.9 1001771
03:00+2˚ссв121497100 1.3 1002820
06:00+2˚ссв121497100 1.8 1003811
09:00+1˚ссв151791100 1.2 10051048
12:00с141793100 2.6 10061044
15:00−1˚с131694100 1.6 10061043
18:00−1˚с131694100 4.0 10071046
21:00−1˚с131596100 2.6 10091021
19 января, вт
вт1900:00−1˚с121496100 6.0 1009933
03:00−1˚с121496100 3.3 1009901
06:00−1˚с121396100 7.1 1010897
09:00−1˚с121495100 2.9 1010923
12:00−1˚ссв121595100 4.8 1010941
15:00−1˚ссв151794100 1.8 10111046
18:00−2˚ссв151793100 3.0 10121066
21:00−3˚ссв141693100 1.3 1014992